Location: Helsinki
(60.1699°N, 24.9384°E)
Time: 21:24:25
(UTC+02:00)

Transit 2A Rocket - Pass Details

Date: 24 September 2023
Orbit: 593 x 903 km, 66.7° (Epoch: 29 November)

Event Time Altitude Azimuth Distance (km) Brightness Sun altitude
Rises 19:37:28 0° 270° (W) 3,204 11.2 -3.6°
Reaches altitude 10° 19:40:05 10° 278° (W) 2,227 9.4 -3.9°
Maximum altitude 19:44:51 41° 349° (NNW) 998 5.8 -4.5°
Drops below altitude 10° 19:49:14 10° 60° (ENE) 2,054 6.8 -5.1°
Enters shadow 19:51:01 - 66° (ENE) 2,719 7.3 -5.3°
Sets 19:51:34 0° 68° (ENE) 2,927 - -5.3°
